Bradford, PA

10:52 AM EST on January 19, 2018 (GMT -0500)
Bradford Regional

Weather History for KBFD - May, 2013

Change the Weather History Date:

Wednesday, May 29, 2013

  Actual Average Record
Temperature  
Mean Temperature 72 °F 57 °F  
Max Temperature 82 °F 69 °F 87 °F (2006)
Min Temperature 62 °F 45 °F 29 °F (2008)
Degree Days  
Heating Degree Days 0 5  
Month to date heating degree days 233  
Since 1 July heating degree days 7484  
Cooling Degree Days 7 1  
Month to date cooling degree days 1  
Year to date cooling degree days 3  
Growing Degree Days 22 (Base 50)    
Moisture  
Dew Point 60 °F    
Average Humidity 72    
Maximum Humidity 87    
Minimum Humidity 47    
Precipitation  
Precipitation 0.60 in 0.15 in 0.76 in (1990)
Month to date precipitation 3.89  
Year to date precipitation 16.45  
Sea Level Pressure  
Sea Level Pressure 30.05 in    
Wind  
Wind Speed 5 mph (SSW)    
Max Wind Speed 13 mph    
Max Gust Speed 21 mph    
Visibility 8 miles    
Events Rain    
T = Trace of Precipitation, MM = Missing Value Source: NWS Daily Summary

Daily Weather History Graph

Daily Weather History Graph

Search for Another Location

Airport or City:

Trip Planner

Search our weather history database for the weather conditions in past years. The results will help you decide how hot, cold, wet, or windy it might be!

Date:

Astronomy

May. 29, 2013 Rise Set
Actual Time 5:43 AM EDT 8:40 PM EDT
Civil Twilight 5:10 AM EDT 9:14 PM EDT
Nautical Twilight 4:28 AM EDT 9:56 PM EDT
Astronomical Twilight 3:39 AM EDT 10:45 PM EDT
Moon 12:00 AM EDT (5/29) 10:43 AM EDT (5/29)
Length of Visible Light 16h 03m
Length of Day
14h 57m
Waning Gibbous, 73% of the Moon is Illuminated
May 29
Waning Gibbous
May 31
Last Quarter
Jun 8
New
Jun 16
First Quarter
Jun 23
Full

Hourly Weather History & Observations

Time (EDT) Temp. Heat Index Dew Point Humidity Pressure Visibility Wind Dir Wind Speed Gust Speed Precip Events Conditions
12:15 AM 63.0 °F - 59.0 °F 87% 30.10 in 1.8 mi West 8.1 mph - 0.14 in Rain Heavy Rain
12:30 AM 62.1 °F - 57.9 °F 86% 30.07 in 3.0 mi South 5.8 mph - 0.24 in Rain Light Rain
12:53 AM 63.0 °F - 57.9 °F 84% 30.05 in 3.0 mi SSW 4.6 mph - 0.39 in Rain Rain
1:53 AM 62.1 °F - 57.9 °F 86% 30.03 in 10.0 mi SE 3.5 mph - 0.20 in   Overcast
2:53 AM 62.1 °F - 57.9 °F 86% 30.01 in 10.0 mi SE 3.5 mph - N/A   Overcast
3:53 AM 63.0 °F - 57.9 °F 84% 29.99 in 10.0 mi SSE 5.8 mph - N/A   Mostly Cloudy
4:53 AM 64.9 °F - 57.9 °F 78% 29.99 in 10.0 mi SSW 4.6 mph - N/A   Mostly Cloudy
5:53 AM 64.0 °F - 57.9 °F 80% 29.99 in 10.0 mi South 6.9 mph - N/A   Scattered Clouds
6:53 AM 66.0 °F - 57.9 °F 75% 30.01 in 10.0 mi Calm Calm - N/A   Partly Cloudy
7:53 AM 66.9 °F - 57.9 °F 73% 30.03 in 10.0 mi Variable 6.9 mph - N/A   Overcast
8:53 AM 66.9 °F - 59.0 °F 76% 30.04 in 10.0 mi SW 5.8 mph - 0.01 in   Overcast
9:53 AM 71.1 °F - 60.1 °F 68% 30.04 in 10.0 mi WSW 8.1 mph - N/A   Clear
10:53 AM 75.0 °F - 60.1 °F 60% 30.03 in 10.0 mi SW 8.1 mph - N/A   Partly Cloudy
11:53 AM 75.0 °F - 60.1 °F 60% 30.04 in 10.0 mi West 5.8 mph 16.1 mph N/A   Mostly Cloudy
12:53 PM 75.0 °F - 60.1 °F 60% 30.05 in 10.0 mi Variable 6.9 mph 17.3 mph N/A   Mostly Cloudy
1:53 PM 78.1 °F - 61.0 °F 56% 30.03 in 10.0 mi SW 9.2 mph - N/A   Clear
2:53 PM 80.1 °F 81.1 °F 61.0 °F 52% 30.03 in 10.0 mi Variable 4.6 mph - N/A   Mostly Cloudy
3:53 PM 82.0 °F 82.4 °F 60.1 °F 47% 30.02 in 10.0 mi WSW 12.7 mph 20.7 mph N/A   Mostly Cloudy
4:53 PM 77.0 °F - 62.1 °F 60% 30.03 in 10.0 mi SSW 6.9 mph - N/A   Partly Cloudy
5:53 PM 78.1 °F - 62.1 °F 58% 30.04 in 10.0 mi Variable 4.6 mph - 0.00 in   Partly Cloudy
6:53 PM 77.0 °F - 62.1 °F 60% 30.04 in 10.0 mi Variable 4.6 mph - N/A   Partly Cloudy
7:53 PM 75.9 °F - 61.0 °F 60% 30.04 in 10.0 mi West 3.5 mph - N/A   Mostly Cloudy
8:53 PM 73.9 °F - 61.0 °F 64% 30.05 in 10.0 mi Variable 3.5 mph - N/A   Mostly Cloudy
9:53 PM 71.1 °F - 62.1 °F 73% 30.06 in 10.0 mi Calm Calm - N/A   Overcast
10:53 PM 66.0 °F - 61.0 °F 84% 30.08 in 6.0 mi Calm Calm - N/A   Haze
11:25 PM 64.9 °F - 60.1 °F 84% 30.13 in 1.8 mi Calm Calm - N/A   Haze
11:34 PM 64.0 °F - 60.1 °F 87% 30.13 in 0.8 mi Calm Calm - N/A   Clear
11:43 PM 64.0 °F - 60.1 °F 87% 30.13 in 1.2 mi Calm Calm - N/A   Clear
11:53 PM 64.0 °F - 60.1 °F 87% 30.09 in 4.0 mi Calm Calm - N/A   Clear